ATLAS 5 CENTAUR R/B, 39653

Orbit data source: Space-Track

ATLAS 5 CENTAUR R/B, 39653 is space debris in HEO originally from a launch on Thu, 10 Apr 2014 UTC launched from the Air Force Eastern Test Range (AFETR). Debris objects in space refer to the collection of defunct objects orbiting the Earth. Examples of debris include non-operational satellites, rocket bodies, and fragments generated from explosions, collisions, or faulty payload assembly.

Loading next visibility...
Identifier
39653, 2014-020B
Orbit
HEO
Country
Flag of USUS
Related business
Flag of USUnited Launch Alliance/Lockheed Martin (US)
Manufacturer
ULA Decatur
Mission
Spacecraft
Bus & Motor
CENTAUR SEC, RL10-4A-2
Mass
~2,020 kg wet, 2,020 kg dry
Launch date (UTC)
2014-04-10 (12 years ago)
Launch vehicle
Unknown
Launch site
Air Force Eastern Test Range (AFETR)
Object type
Payload
Rocket body
Debris
Shape & HBR
Cyl + 1 Nozzle, 5.8 m
Radar Cross Section
32.260 m²

Expand to show TLE details & history
Last TLE update: 21 hours ago

TLE from 21 hours ago
0 ATLAS 5 CENTAUR R/B
1 39653U 14020B   25354.21535704 -.00000048  00000-0  00000+0 0  9991
2 39653  10.6984 254.0125 4837185 273.5415  34.7461  1.86028374 42659
Epoch: 2025-12-20T05:10Z
TLE epoch observation values (Epoch: 2025-12-20T05:10:06.848Z)
Latitude
0.00005°
Longitude
87.62984°
Altitude
14,461.996 km
Speed
4.897 km/s
True Right ascension
16h 56m 48s
True Declination
0° 00' 00"
Sunlit
Object was in daylight at epoch
Visualization orbit readout
Latitude
Unknown
Longitude
Unknown
Altitude
Unknown
Speed
Unknown
Apparent Right ascension
Unknown
Apparent Declination
Unknown
Sunlit
N/A
Visualization observer readout
Local Sidereal Time
01:06:15
Azimuth
Unknown
Elevation
Unknown
Doppler factor
Unknown
Orbital elements
Apogee altitude
35,060.187 km
Perigee altitude
8,040.932 km
Semi-major axis
27,928.697 km
Eccentricity
0.48372
Inclination
10.6984°
RAAN
254.0125°
Arg. of periapsis
273.5415°
True anomaly
86.83219°
Mean anomaly
34.7461°
Eccentric anomaly
58.33533°
Mean motion
0.46502 °/min
Orbital period
774.17 mins
BSTAR
0
Loading maneuver chart data...
Computing Atmospheric mass density...
Loading historical data...
Loading historical data...
Loading historical data...
Loading historical data...
Loading historical data...
Loading historical data...
Loading historical data...
Other satellites on launch #20 in the year 2014 (2014-04-10 UTC)

Documentation

Showing up to 5 results
|